This is the latest recevied weather packets stored in our database for station/object W4MLN-3. If no packets are shown the sender has not sent any weather packets the latest 10 day(s).
| Time | Temp. | Humidity | Pressure | Rain* | Wind** | Luminosity | Snow |
|---|---|---|---|---|---|---|---|
| 1787857803 | 25.56° C | 72% | 1018.2 hPa | 0 mm | - | - | - |
| 1787857503 | 25° C | 72% | 1018.1 hPa | 0 mm | - | - | - |
| 1787857203 | 25° C | 74% | 1018.2 hPa | 0 mm | - | - | - |
| 1787856903 | 25° C | 75% | 1018.3 hPa | 0 mm | - | - | - |
| 1787856603 | 25° C | 74% | 1018.3 hPa | 0 mm | - | - | - |
| 1787856303 | 25.56° C | 73% | 1018.4 hPa | 0 mm | - | - | - |
| 1787856003 | 25.56° C | 71% | 1018.5 hPa | 0 mm | - | - | - |
| 1787855703 | 26.11° C | 71% | 1018.5 hPa | 0 mm | - | - | - |
| 1787855403 | 26.67° C | 68% | 1018.5 hPa | 0 mm | - | - | - |
| 1787855104 | 27.22° C | 66% | 1018.6 hPa | 0 mm | - | - | - |
| 1787854804 | 27.22° C | 61% | 1018.7 hPa | 0 mm | - | - | - |
| 1787854503 | 27.78° C | 59% | 1018.8 hPa | 0 mm | - | - | - |
| 1787854203 | 27.78° C | 59% | 1018.8 hPa | 0 mm | - | - | - |
| 1787853945 | 27.22° C | 60% | 1018.8 hPa | 0 mm | - | - | - |
| 1787853603 | 27.22° C | 61% | 1018.8 hPa | 0 mm | - | - | - |
| 1787853303 | 26.67° C | 62% | 1018.8 hPa | 0 mm | - | - | - |
| 1787853003 | 26.67° C | 63% | 1018.8 hPa | 0 mm | - | - | - |
| 1787852703 | 26.67° C | 64% | 1018.8 hPa | 0 mm | - | - | - |
| 1787852403 | 26.67° C | 65% | 1018.8 hPa | 0 mm | - | - | - |
| 1787852124 | 26.67° C | 63% | 1018.9 hPa | 0 mm | - | - | - |
| 1787851803 | 26.11° C | 67% | 1019 hPa | 0 mm | - | - | - |
| 1787851503 | 26.11° C | 65% | 1019 hPa | 0 mm | - | - | - |
| 1787851203 | 26.11° C | 67% | 1019.1 hPa | 0 mm | - | - | - |
| 1787850903 | 26.11° C | 66% | 1019.1 hPa | 0 mm | - | - | - |
| 1787850624 | 26.11° C | 65% | 1019.2 hPa | 0 mm | - | - | - |
* Rain latest hour (hover to see other rain measurements)
** Current wind speed in m/s (hover to see current wind gust speed)